Location: Homewood
(41.1836°S, 175.9581°E)
Time: 02:29:44
(UTC+00:00)

ARGOS - Visible Passes

Search period start: 19 July 2024 00:00
Search period end: 29 July 2024 00:00
Orbit: 820 x 833 km, 98.4° (Epoch: 18 July)

Date Brightness Start Highest point End Pass type
(mag) Time Alt. Az. Time Alt. Az. Time Alt. Az.
19 Jul 5.2 06:20:06 10° S 06:24:31 26° WSW 06:28:55 10° WNW visible
20 Jul 4.6 06:00:48 10° S 06:05:45 37° WSW 06:10:41 10° NW visible
21 Jul 4.0 05:41:38 10° S 05:46:56 54° WSW 05:52:11 10° NNW visible
22 Jul 6.0 07:05:47 10° SW 07:07:23 11° WSW 07:08:59 10° WSW visible
23 Jul 5.8 06:45:28 10° SSW 06:48:45 16° WSW 06:52:01 10° W visible
24 Jul 5.4 06:25:51 10° SSW 06:30:03 23° WSW 06:34:14 10° WNW visible
25 Jul 4.9 06:06:30 10° S 06:11:18 33° WSW 06:16:06 10° NW visible
26 Jul 4.2 05:47:17 10° S 05:52:30 48° WSW 05:57:40 10° NW visible
28 Jul 5.8 06:51:22 10° SSW 06:54:14 15° WSW 06:57:06 10° W visible
